OpenBCM V1.13 (Linux)

Packet Radio Mailbox

DB0FHN

[JN59NK Nuernberg]

 Login: GUEST





  
I0OJJ  > AMSAT    29.08.26 02:40l 331 Lines 15647 Bytes #999 (0) @ WW
BID : 4KI_IR0EQ
Read: GUEST DJ6UX
Subj: 2Line Orbital Elements
Path: DB0FHN<OE2XZR<OK1TOR<SR6DWH<SR1BSZ<EA2RCF<IR0EQ
Sent: 260829/0027z @:IR0EQ.ITA.EU [Rome] $:4KI_IR0EQ

>From i0ojj@rgate.ampr.org Sat Aug 29 02:27:17 2026
Received: from rgate.ampr.org by rgate.ampr.org (JNOS2.0q.1) with SMTP
	id AA5922 ; Sat, 29 Aug 2026 02:27:17 +0200
Received: by rgate.ampr.org with SMTP
	id AA5919 ; Sat, 29 Aug 2026 02:26:55 +0200
Message-Id: <5920@rgate.ampr.org>
>From: i0ojj@rgate.ampr.org

SB KEPS @ AMSAT  $ORB26241.1
2Line Orbital Elements 26241.AMSAT

QST de W1STR

AMSAT Orbital Elements for Amateur Satellites in TLE Format
>From Orbital Analysis Office
New England Sci-Tech STEM Education Center
Natick MA August 29, 2026
To all radio amateurs


These element sets describe the orbits of various satellites 
in use by the amateur radio community. For details see:
www.amsat.org/keplerian-elements-formats/

A daily update of element sets is available at:
www.amsat.org/tle/daily-bulletin.txt
or without bulletin text:
www.amsat.org/tle/dailytle.txt


AO-07
1 07530U 74089B   26240.54302448 -.00000030  00000-0  99865-4 0  9992
2 07530 101.9921 254.5462 0012219 355.0665 172.4366 12.53699343369588
UO-11
1 14781U 84021B   26240.63991059  .00001368  00000-0  14420-3 0  9994
2 14781  97.8137 205.4419 0006387 313.6289  46.4398 14.90952907267925
LO-19
1 20442U 90005G   26240.53158929  .00000083  00000-0  46212-4 0  9992
2 20442  98.8838 264.3245 0011458 359.6980   0.4195 14.34140508912767
AO-27
1 22825U 93061C   26240.65030125  .00000080  00000-0  47440-4 0  9995
2 22825  98.6822 308.0160 0007344 244.2031 115.8394 14.30958023717368
FO-29
1 24278U 96046B   26240.09953045  .00000004  00000-0  42831-4 0  9993
2 24278  98.5185  79.1140 0348800 269.8259  86.2918 13.53277379482899
GO-32
1 25397U 98043D   26240.27387029  .00000040  00000-0  37403-4 0  9997
2 25397  99.0131 234.8710 0001854  44.6044 315.5283 14.24440197461594
ISS
1 25544U 98067A   26240.62745103  .00012701  00000-0  23891-3 0  9999
2 25544  51.6318 301.5460 0005003  85.3161 274.8399 15.48922010582983
NO-44
1 26931U 01043C   26240.86776830  .00000078  00000-0  60181-4 0  9993
2 26931  67.0500  56.2820 0005656 270.9596  89.0858 14.31978900300850
SO-50
1 27607U 02058C   26240.50684806  .00000812  00000-0  11310-3 0  9998
2 27607  64.5507 265.2064 0072907 249.2044 110.1241 14.83182058275189
CO-55
1 27844U 03031E   26240.46180773  .00000240  00000-0  12254-3 0  9995
2 27844  98.6767 248.1213 0009161 343.0943  16.9929 14.24373405201961
RS-22
1 27939U 03042A   26240.88540736  .00000484  00000-0  82679-4 0  9996
2 27939  98.3481  67.3145 0012184  42.8865  97.2000 14.73577070226256
CO-65
1 32785U 08021C   26240.88861727  .00004761  00000-0  29656-3 0  9996
2 32785  97.8349 223.8802 0009964 133.1085 227.0979 15.10039228996169
CO-66
1 32791U 08021J   26239.95943834  .00019894  00000-0  58733-3 0  9990
2 32791  97.7550 241.4251 0004589  76.0719 284.1034 15.35004299998299
RS-30
1 32953U 08025A   26240.85067817  .00000019  00000-0  64526-4 0  9990
2 32953  82.5064 310.2498 0020324 150.5438 209.6792 12.43182172828726
SRMSAT
1 37841U 11058D   26240.54436303  .00000366  00000-0  54934-4 0  9994
2 37841  19.9732 341.5012 0011611 280.7617 183.3062 14.11588934768056
ZACUBE-1
1 39417U 13066B   26240.65205441  .00005473  00000-0  41855-3 0  9996
2 39417  97.8060 203.3394 0041559  10.6590 349.5505 15.01653130691603
Delfi-N3xt
1 39428U 13066N   26240.64149073  .00006908  00000-0  59081-3 0  9999
2 39428  97.8293 160.9075 0072516 326.6629  33.0036 14.95902470685453
GOMX-1
1 39430U 13066Q   26240.83664874  .00001357  00000-0  20922-3 0  9999
2 39430  97.6446  76.7201 0127385 203.4602 156.0762 14.69642009680588
LO-74
1 39440U 13066AA  26240.79889448  .00003013  00000-0  27787-3 0  9998
2 39440  97.8952 190.1268 0057924 145.2051 215.2978 14.94176703687832
AO-73
1 39444U 13066AE  26240.88684652  .00008136  00000-0  49250-3 0  9992
2 39444  97.8343 213.9256 0034374 318.5398  41.3223 15.10395417690631
DTUSAT-2
1 40030U 14033W   26239.48315115  .00007691  00000-0  40590-3 0  9992
2 40030  98.0902 241.7982 0007693   5.5087 354.6227 15.15830355663482
LILACSAT-2
1 40908U 15049K   26240.84270287  .00019101  00000-0  29926-3 0  9995
2 40908  97.4586 280.5405 0005994   4.7470 355.3839 15.53748938607029
Lapan A3
1 41603U 16040E   26240.89141910  .00003096  00000-0  97733-4 0  9993
2 41603  97.1544 234.6906 0011970 110.9615 249.2910 15.33509461565951
CAS-2T
1 41847U 16066G   26240.61117270  .00000501  00000-0  80520-4 0  9997
2 41847  98.3774 315.5175 0340024 269.7946  86.4286 14.44818013515253
TechnoSat
1 42829U 17042E   26240.31434375  .00003552  00000-0  25162-3 0  9997
2 42829  97.4374  35.2838 0016935 203.9102 156.1341 15.05314209497552
AO-91
1 43017U 17073E   26240.15602694  .00007487  00000-0  31795-3 0  9994
2 43017  97.4597 105.9022 0149743  80.0220 281.7873 15.13653168476278
S-Net D
1 43186U 18014G   26240.62485499  .00004561  00000-0  23237-3 0  9993
2 43186  97.5276 144.9606 0009565 120.5076 239.7103 15.17249900469749
S-Net B
1 43187U 18014H   26240.63777234  .00004119  00000-0  21036-3 0  9990
2 43187  97.5281 144.9620 0010286 116.9184 243.3101 15.17217876469749
S-Net A
1 43188U 18014J   26240.68928914  .00004644  00000-0  23644-3 0  9999
2 43188  97.5292 145.2360 0010151 117.2852 242.9417 15.17258966469755
S-Net C
1 43189U 18014K   26240.31232271  .00003799  00000-0  19428-3 0  9999
2 43189  97.5310 144.9472 0011614 112.8135 247.4326 15.17205101468242
Ten-Koh
1 43677U 18084G   26240.08773289  .00002220  00000-0  16905-3 0  9996
2 43677  98.0754  75.4890 0008582 233.6306 126.4127 15.03192092426963
PO-101
1 43678U 18084H   26240.85313061  .00001344  00000-0  11131-3 0  9992
2 43678  98.1194  80.2591 0010550 288.6266  71.3810 15.00684328427118
QO-100
1 43700U 18090A   26240.83252876  .00000145  00000-0  00000+0 0  9996
2 43700   0.0123 114.8068 0002591  74.6508 113.0874  1.00272983 28407
MinXSS-2
1 43758U 18099A   26240.49020409  .00036896  00000-0  61412-3 0  9995
2 43758  97.4481 319.1378 0005862   6.7136 353.4194 15.51931341425326
AO-95
1 43770U 18099N   26240.59936987  .00010072  00000-0  36967-3 0  9992
2 43770  97.4323 300.6247 0010057  93.1143 267.1247 15.28100798424276
SNUSat 2
1 43782U 18099AA  26240.11078565  .00006839  00000-0  29492-3 0  9993
2 43782  97.4006 292.4150 0011144  50.7889 309.4336 15.22816610423978
SnugLite
1 43784U 18099AC  26240.57706167  .00009045  00000-0  32800-3 0  9990
2 43784  97.3807 294.1916 0003860  58.0992 302.0623 15.28565400424376
ITASat 1
1 43786U 18099AE  26240.79112959  .00005699  00000-0  26824-3 0  9996
2 43786  97.3966 290.8691 0014072  98.6284 261.6546 15.19849752423938
EAGLET 1
1 43790U 18099AJ  26240.39675046  .00003361  00000-0  19149-3 0  9994
2 43790  97.4172 288.1511 0012746  95.8547 264.4138 15.13408679423257
ESEO
1 43792U 18099AL  26240.35035877  .00000894  00000-0  68038-4 0  9994
2 43792  97.3933 274.6394 0014019  87.6937 272.5894 15.04432700422653
JO-97
1 43803U 18099AX  26240.14129626  .00015625  00000-0  45045-3 0  9990
2 43803  97.4070 303.3111 0005700  30.9124 329.2455 15.35793532424665
Suomi 100
1 43804U 18099AY  26240.12026996  .00011200  00000-0  38824-3 0  9997
2 43804  97.4127 300.2987 0010124  34.8549 325.3353 15.29943141424419
ISAT
1 43879U 18111D   26240.79082628  .00234867  00000-0  10008-2 0  9990
2 43879  97.5810 182.5087 0007643 106.6801 253.5308 15.84582861422581
UWE-4
1 43880U 18111E   26240.27691064  .00036103  00000-0  63180-3 0  9998
2 43880  97.5824 172.2206 0009721  72.1810 288.0501 15.50489824421937
Sparrow
1 43881U 18111F   26228.98401838  .16116594  28263-5  19760-3 0  9992
2 43881  97.5857 177.1140 0010462 202.8700 157.2139 16.49385238421037
Prox-1
1 44339U 19036A   26240.58395492  .00011465  00000-0  10713-2 0  9992
2 44339  23.9961 350.0487 0005652 146.9701 213.1152 14.92136594384293
Taurus 1
1 44530U 19059C   26240.75061834  .00004192  00000-0  66466-3 0  9995
2 44530  98.6477  50.1479 0009582  85.8704 274.3597 14.72750622369327
TO-108
1 44881U 19093C   26240.80720436  .00000409  00000-0  52096-4 0  9990
2 44881  97.7485 311.2511 0012819 202.3781 157.6877 14.86611617362200
RS-44
1 44909U 19096E   26240.63388274  .00000033  00000-0  93144-4 0  9997
2 44909  82.5203 291.5721 0216960 335.2651  23.8167 12.79749019311612
SALSAT
1 46495U 20068K   26240.00897782  .00007891  00000-0  26828-3 0  9993
2 46495  97.8878 247.5086 0010919  57.2315 302.9975 15.30706055326347
CSS (TIANHE-1)
1 48274U 21035A   26240.67964471  .00016305  00000-0  20461-3 0  9995
2 48274  41.4674 241.9417 0001837 253.3489 106.7148 15.59354813304484
TeikyoSat 4
1 49396U 21102B   26240.50257668  .00001635  00000-0  10501-3 0  9995
2 49396  97.3648 267.1732 0013247  49.6954 310.5431 15.09726394263635
Z-Sat
1 49399U 21102E   26240.88114123  .00002761  00000-0  13570-3 0  9997
2 49399  97.3288 274.0039 0016290   0.2755 359.8486 15.18751674264476
KOSEN 1
1 49402U 21102H   26240.07926803  .00007450  00000-0  27701-3 0  9990
2 49402  97.3135 280.8639 0011942 318.7696  41.2641 15.27741293264991
HO-113
1 50466U 21131B   26240.87382051  .00000313  00000-0  11021-3 0  9992
2 50466  98.4984 332.8692 0003086 228.0093 132.0834 14.41413221245587
SNUGLITE 2
1 52899U 22065F   26240.32180277  .00000837  00000-0  16721-3 0  9990
2 52899  98.2304  25.0698 0008093 149.4193 210.7483 14.64460366221552
UmKA 1 (RS40S)
1 57172U 23091G   26240.84652983  .00005701  00000-0  25590-3 0  9993
2 57172  97.4987 299.2753 0011420 219.6426 140.3975 15.21525266175055
CubeBel-2 (EU11S)
1 57175U 23091K   26240.84572352  .00011995  00000-0  40564-3 0  9997
2 57175  97.4989 304.7713 0008678 208.2424 151.8347 15.30746586175411
RS-38S
1 57189U 23091Z   26240.86412965  .00017733  00000-0  47379-3 0  9994
2 57189  97.5036 311.8952 0007488 159.3160 200.8389 15.38123911175853
